Temp
18 18 17 17 18 19 19 20 20 20 20 20 20 20 20 20 20 20 19 19 19 19 19 19 19 19 19 19 19 18 18 18 18 18 18 17 17 17 17 17 17 17 17 17 17 17 17 17 17 17 17 17 17 17 17 17 17 17 17 17 17 18 18 18 17 16 17 18 18 19 19 19 20 20 20 20 20 20 19 19 19 18 18 17 17
18 18 17 17 19 19 19 19 20 20 20 20 20 20 20 20 20 20 20 20 19 19 19 19 19 19 19 19 19 19 19 19 19 18 18 18 17 17 17 17 17 17 17 17 17 17 17 17 17 17 17 17 17 17 17 17 17 17 17 17 17 17 18 18 17 16 16 17 18 18 19 19 19 19 20 20 20 20 19 19 19 18 18 18 17
18 18 17 18 19 19 18 18 19 19 19 20 20 20 20 20 20 19 19 19 19 19 19 19 19 19 19 19 19 19 19 19 19 19 19 18 18 18 18 18 18 18 18 18 18 18 18 18 17 17 17 17 17 17 17 17 17 17 18 18 18 18 18 18 18 17 17 17 18 18 18 19 19 19 19 19 20 20 19 19 19 18 18 18 18
16 17 17 18 18 17 17 18 18 18 19 19 19 19 19 19 19 19 19 19 19 19 19 20 20 20 20 19 19 19 19 19 19 19 19 19 18 18 18 18 18 18 18 18 18 18 18 18 18 18 17 17 18 18 17 17 17 18 18 18 18 18 18 18 18 18 17 17 18 18 18 18 19 19 19 19 19 19 19 19 19 19 19 18 18
17 17 18 19 19 18 18 18 19 18 18 18 18 18 18 18 18 18 18 18 19 19 19 19 19 19 19 19 19 20 19 19 19 19 19 19 19 19 18 18 18 18 18 18 18 18 18 18 18 18 18 17 17 17 17 17 17 17 17 18 18 18 19 19 19 19 18 18 18 18 18 18 18 18 19 19 19 19 19 19 19 19 19 19 19
19 19 19 20 20 20 19 19 19 19 19 18 18 18 17 17 18 18 18 18 18 18 18 19 19 19 19 19 19 20 20 20 20 20 19 19 19 19 19 19 18 18 18 18 18 18 18 18 18 18 18 18 17 17 17 17 17 17 17 17 18 18 18 18 18 19 18 18 18 18 18 18 18 18 18 19 19 19 19 19 19 19 19 19 19
20 20 20 20 20 20 20 19 19 19 19 18 18 18 18 17 17 18 18 18 18 18 18 18 19 19 19 18 19 19 20 20 20 20 19 19 19 19 19 19 19 18 18 18 18 18 18 18 18 18 18 18 18 18 17 17 17 17 17 17 17 18 18 18 18 18 18 18 18 17 17 17 17 17 18 18 18 19 19 19 19 19 19 19 19
20 20 20 20 20 20 20 20 20 19 19 18 18 18 18 18 18 18 18 18 18 18 18 18 18 18 18 18 18 19 19 19 19 18 18 17 18 19 19 19 19 18 18 18 18 18 18 18 18 18 18 19 18 18 18 17 17 17 17 17 17 17 17 17 17 17 17 17 17 17 17 17 17 17 17 18 18 18 18 18 18 18 18 18 18
20 20 20 20 20 20 20 20 20 19 19 19 18 18 18 18 18 18 18 18 18 18 18 18 17 16 17 17 17 18 18 18 18 18 17 16 16 17 18 19 19 19 18 18 18 18 18 18 18 18 18 18 18 18 18 18 18 17 17 17 17 17 17 17 17 17 17 17 17 17 16 17 17 17 17 17 17 17 18 18 18 18 18 18 17
20 20 20 20 20 20 20 20 20 19 19 19 18 18 18 18 18 18 18 17 17 17 18 17 17 16 16 16 16 17 17 17 17 17 17 16 16 16 17 18 18 19 19 18 18 18 18 18 17 18 18 18 18 18 18 18 18 18 17 17 17 17 17 16 16 16 16 16 16 15 15 15 16 16 16 16 16 16 16 16 17 17 17 17 16
19 19 19 20 20 20 20 20 20 19 19 18 18 18 18 18 18 18 17 17 17 17 17 17 17 16 16 16 16 16 16 16 16 17 17 17 16 16 16 17 17 18 18 18 18 18 18 18 18 18 18 18 18 18 18 18 18 18 18 18 17 17 17 16 16 16 16 15 15 15 14 14 15 15 15 16 16 15 14 14 15 16 16 15 15
19 19 19 19 19 19 19 19 18 18 18 18 18 18 18 18 18 17 17 16 16 16 16 16 16 16 15 15 15 15 15 15 15 16 16 16 16 16 16 16 16 16 17 17 18 18 18 18 18 18 18 18 18 18 18 18 18 18 18 18 18 17 17 17 16 16 16 15 15 15 15 15 15 15 15 15 16 15 15 14 15 15 15 14 14
19 19 19 18 18 18 18 18 17 17 17 17 17 17 17 17 17 17 16 16 16 16 16 16 16 16 15 15 15 15 15 15 15 15 15 15 15 16 15 15 15 15 16 16 16 17 17 17 17 17 18 18 18 18 18 18 18 18 18 18 18 17 17 17 17 16 16 16 15 15 15 15 15 15 16 16 16 15 15 14 15 15 14 14 14
18 18 18 18 18 18 18 17 17 17 17 17 17 17 16 16 16 16 16 16 16 16 15 15 16 15 15 15 15 15 15 14 14 14 14 14 14 15 15 15 15 15 15 15 15 15 16 16 16 16 16 16 17 17 17 17 17 17 17 17 17 17 17 17 17 17 16 16 15 15 15 15 15 15 15 14 14 13 14 14 14 14 13 13 13
18 18 18 18 18 18 18 17 17 17 17 17 16 16 16 16 16 15 15 15 15 15 15 15 15 15 14 14 14 14 14 14 14 13 13 14 14 14 14 14 14 14 14 14 14 14 14 15 14 15 15 15 15 16 16 16 15 15 15 16 16 16 16 16 16 16 16 16 15 14 14 14 14 14 14 14 13 13 13 13 13 13 13 12 11
18 18 18 18 18 17 17 17 17 17 17 16 16 16 15 15 15 15 15 15 14 14 14 14 14 14 14 14 14 14 13 13 13 13 13 13 13 13 13 13 13 13 13 14 13 13 14 14 14 14 14 14 14 14 15 15 14 14 14 14 15 15 15 14 14 14 14 14 13 13 13 13 13 13 13 12 12 12 12 12 12 12 12 11 10
18 18 18 17 17 17 17 17 17 17 17 16 16 16 15 15 15 14 14 14 14 13 13 13 13 13 13 13 13 13 12 12 12 12 13 13 13 13 13 13 13 12 13 13 13 13 13 13 13 13 13 13 13 14 14 14 13 13 13 13 13 14 14 14 13 13 13 13 13 13 13 13 12 11 11 11 10 11 11 11 11 11 11 10 9
18 18 17 17 17 17 16 17 17 17 16 16 16 16 15 15 14 14 14 13 13 13 12 12 12 12 12 12 11 11 11 11 12 12 12 12 13 13 12 12 12 12 12 13 13 13 13 13 13 12 12 12 12 13 13 13 12 12 13 13 13 13 13 13 13 13 13 13 13 13 12 11 10 10 10 10 10 10 10 10 10 10 10 9 9
18 17 17 17 17 16 16 16 16 17 16 16 16 16 16 15 14 14 13 13 13 13 12 12 11 11 11 11 11 11 10 11 12 12 12 12 12 12 12 11 11 11 12 12 12 12 12 12 12 11 11 12 12 12 12 12 12 12 12 12 12 12 13 13 12 12 12 12 12 11 11 10 10 9 10 10 10 9 10 9 9 9 9 8 8
17 17 17 17 16 16 16 16 16 16 16 16 16 16 16 15 15 14 14 14 14 13 13 12 12 12 12 11 12 11 11 11 12 12 13 13 13 12 11 10 10 10 10 11 11 11 11 11 11 11 11 11 11 11 11 11 10 10 10 10 11 11 11 11 11 11 11 11 11 10 10 9 9 9 9 9 8 8 8 8 8 8 8 8 8
17 17 17 17 16 16 16 16 16 16 16 16 16 17 16 16 15 15 14 14 14 14 13 13 13 13 12 12 12 12 12 12 12 12 12 12 13 12 10 9 9 9 10 9 9 10 10 10 10 10 10 11 11 11 10 10 10 9 9 9 9 9 10 10 10 10 10 10 9 9 9 8 8 8 8 8 8 8 8 7 7 7 7 8 8
17 17 16 16 16 16 16 16 16 16 16 16 16 16 16 16 16 15 15 14 14 14 14 14 14 13 13 13 12 12 12 12 11 11 12 11 11 12 11 9 9 9 9 9 8 8 8 9 9 9 10 10 10 10 10 10 10 9 8 8 8 9 9 9 9 9 8 8 8 8 8 8 8 8 8 8 8 8 8 7 7 7 7 7 8
16 16 16 16 16 16 16 16 16 16 16 16 15 16 16 16 16 16 16 15 15 14 14 14 14 14 14 13 12 12 12 12 12 11 12 12 11 11 11 11 10 9 9 8 8 8 8 9 9 9 10 10 10 10 10 10 10 9 8 8 8 8 8 8 8 8 8 8 8 7 7 7 7 7 7 7 7 8 8 8 8 7 7 7 7
16 16 16 16 16 16 16 16 16 16 16 16 15 15 15 15 16 16 16 16 16 15 15 14 14 14 14 14 13 13 12 12 12 12 12 12 12 12 11 11 11 10 9 9 9 9 9 9 9 10 10 10 10 10 10 10 10 9 9 9 9 9 9 8 8 8 8 8 7 7 7 7 7 7 7 7 7 8 8 8 8 8 8 8 8
16 16 16 16 16 16 16 16 16 16 16 16 15 15 15 15 15 15 15 16 16 16 16 15 15 15 15 14 14 13 13 13 13 12 12 12 12 12 12 11 11 10 10 10 10 10 10 10 10 10 10 10 10 10 10 10 10 10 10 10 10 9 9 9 9 8 8 7 7 7 7 7 7 7 7 7 8 8 8 8 8 8 8 8 8
16 16 16 16 16 16 16 16 16 16 16 16 16 15 15 14 14 14 14 14 15 15 16 16 16 15 15 15 14 14 13 13 13 12 12 11 11 12 12 12 11 11 11 11 10 10 11 11 11 11 11 11 11 11 11 10 10 10 10 10 10 9 9 9 9 8 7 7 7 7 7 8 8 8 8 8 8 8 8 8 8 8 8 8 8
16 16 16 16 17 16 16 16 16 16 16 16 16 16 15 15 14 14 14 13 13 14 14 15 14 14 15 15 14 14 14 13 12 12 12 12 12 12 12 12 12 11 11 11 11 10 11 11 11 12 11 11 11 11 11 11 11 11 11 10 10 10 9 9 9 9 8 8 8 8 8 9 9 9 9 9 8 8 8 8 8 7 8 8 8
16 16 16 16 16 16 17 17 17 17 16 16 16 16 15 15 14 14 14 13 13 13 13 13 13 13 14 14 14 14 14 13 12 12 12 12 12 12 12 12 12 11 11 11 11 11 11 11 11 12 11 11 11 11 11 11 11 11 11 10 10 10 10 9 9 9 9 9 9 9 9 9 9 9 9 9 9 9 9 9 8 8 8 8 8
17 17 16 16 16 16 17 17 17 17 17 16 15 15 15 15 14 14 14 14 14 13 13 13 13 13 13 13 13 13 13 12 12 12 12 12 12 12 11 11 11 11 11 11 11 11 11 12 12 12 13 13 13 12 12 11 11 11 11 10 10 10 10 10 10 10 10 9 9 9 9 9 9 9 9 9 9 9 9 9 9 9 9 9 9
17 17 17 16 16 16 16 17 16 17 17 16 15 15 15 15 14 14 14 14 14 14 13 13 13 13 13 13 13 12 12 12 12 12 12 12 12 12 12 11 11 11 11 11 10 11 11 12 13 14 14 14 13 13 13 13 12 12 11 11 11 11 10 10 10 10 10 10 10 10 10 10 10 10 10 10 10 10 10 10 10 10 10 10 10
16 16 16 16 16 16 16 16 16 16 17 17 16 15 14 14 14 14 14 14 14 14 14 13 13 13 13 13 13 13 13 13 13 13 12 12 12 12 12 12 12 12 11 11 11 11 11 12 14 14 14 14 14 14 14 14 13 13 12 11 11 11 11 11 11 10 10 10 10 10 10 10 11 11 11 11 11 11 11 11 11 11 10 10 11
16 16 16 15 15 15 16 16 16 16 16 17 16 16 15 14 14 14 14 14 14 13 13 13 13 13 13 13 13 13 13 13 13 13 13 13 13 13 13 13 13 13 12 12 12 12 11 13 14 15 15 15 15 15 15 15 15 14 14 12 12 12 12 11 11 11 11 11 11 11 11 11 12 12 12 12 12 12 11 11 11 11 11 11 12
15 15 16 15 15 15 16 16 16 16 16 16 16 16 16 16 15 14 13 13 13 13 13 13 13 13 13 13 13 13 13 13 13 13 13 13 13 13 13 13 13 13 13 12 12 12 12 13 15 16 16 16 16 15 15 15 15 15 15 14 13 12 12 12 12 12 11 11 11 11 12 12 12 12 12 12 12 12 12 12 12 12 12 12 12
15 15 16 16 15 15 16 16 16 16 16 16 16 16 16 16 16 15 14 13 13 13 13 13 13 13 13 13 13 13 13 13 13 13 13 13 13 13 13 13 14 14 14 13 13 12 12 13 15 16 16 16 16 16 15 15 15 15 15 15 14 13 13 12 12 12 12 12 12 12 13 13 12 12 12 12 13 13 12 13 13 12 12 12 12
15 15 16 16 15 15 16 15 15 15 15 16 16 16 15 15 15 16 16 15 14 13 13 13 13 13 13 13 13 13 13 13 13 13 13 13 13 13 13 13 14 14 15 15 14 13 13 14 15 16 15 15 16 15 15 15 14 14 14 15 15 14 13 13 13 13 13 13 13 13 13 13 13 13 13 13 13 13 13 13 13 13 12 12 12
15 15 15 15 15 15 15 15 15 15 15 15 15 15 15 15 15 15 16 16 16 15 15 14 13 13 13 13 13 13 13 13 13 13 13 13 13 13 13 13 14 15 15 15 15 14 14 14 15 15 15 15 15 15 15 14 14 14 14 14 14 14 14 13 13 13 13 13 13 13 14 13 13 13 13 13 13 13 13 13 13 13 13 12 12
15 15 15 15 15 15 15 15 15 15 15 15 15 15 15 15 15 15 16 16 16 16 16 15 14 13 13 13 13 13 13 13 13 13 13 13 13 13 13 13 14 14 15 14 14 14 14 14 14 14 14 14 14 14 14 14 14 14 14 14 14 14 14 13 13 13 13 13 13 13 13 13 13 13 13 13 13 13 13 13 13 13 13 13 12
15 15 15 15 15 15 15 15 15 15 14 15 15 15 15 15 15 16 16 16 16 16 16 16 15 14 13 13 13 13 13 13 13 13 13 13 13 14 14 14 14 14 14 14 14 14 14 14 14 13 13 13 13 13 13 13 13 13 13 13 13 13 13 13 13 13 13 13 13 13 13 13 13 13 13 13 13 13 13 13 13 12 12 12 12
16 16 16 15 15 15 15 15 14 14 14 14 15 15 15 15 16 16 16 16 16 16 16 16 16 16 15 14 13 13 13 13 12 13 13 13 13 14 14 14 14 14 13 13 13 13 13 13 13 13 12 12 12 12 12 12 12 12 12 12 12 12 12 12 11 11 11 12 12 12 11 11 11 11 12 12 12 12 12 12 12 12 12 12 12
16 16 16 16 15 15 15 15 15 14 14 14 15 15 15 15 15 15 15 15 15 15 15 16 16 15 14 13 13 12 12 12 12 12 12 12 13 13 13 13 13 13 13 13 13 12 12 12 12 12 12 12 12 11 11 11 11 11 11 11 11 11 11 11 11 11 10 10 10 10 10 10 10 10 11 11 11 11 11 11 11 12 12 12 12
16 16 16 16 15 15 15 15 15 15 15 15 15 15 15 15 15 15 15 15 15 15 15 15 15 14 13 13 12 12 12 12 12 12 12 12 13 13 13 13 12 12 12 12 12 11 11 11 11 11 11 11 11 10 10 10 10 10 10 11 11 10 10 10 10 10 9 9 9 9 9 9 9 10 10 10 10 10 11 11 11 11 11 11 11
17 16 16 16 16 15 15 15 15 15 15 15 15 15 14 15 15 14 14 14 14 14 14 14 14 14 13 12 12 12 12 12 12 12 12 12 12 12 12 12 12 12 12 11 11 11 11 10 10 10 10 10 10 10 10 10 10 10 10 10 10 10 10 9 9 8 8 8 8 8 8 9 9 9 9 10 10 10 10 10 10 10 10 10 10
17 16 16 16 16 15 15 15 15 15 15 16 15 15 15 14 14 14 14 14 14 14 14 14 14 14 13 12 12 12 12 12 12 12 12 12 12 12 12 12 12 11 11 10 10 10 10 10 10 9 9 9 9 9 9 9 9 9 9 9 9 9 8 8 7 7 7 7 7 7 8 8 8 9 9 9 9 10 10 10 10 10 10 10 10
16 16 16 16 16 16 15 15 15 15 15 15 15 15 14 14 14 13 14 14 14 14 14 14 14 13 13 12 12 12 12 12 12 12 11 11 11 11 11 11 11 11 10 10 10 10 9 9 9 9 9 9 9 9 8 8 8 8 9 9 8 8 7 6 6 6 6 6 6 7 7 7 7 8 8 8 8 9 9 9 9 9 9 10 10
16 16 16 16 16 15 15 15 15 15 15 15 15 15 14 14 14 13 13 13 14 14 14 13 13 13 13 12 12 12 12 12 11 11 11 11 11 11 11 11 11 10 9 9 9 9 9 9 9 9 8 8 8 8 8 8 8 8 8 8 8 7 6 6 6 5 5 5 5 6 6 6 6 7 7 8 8 8 8 8 8 8 8 8 9
16 16 16 16 16 15 15 15 15 15 15 15 15 15 15 14 14 14 13 13 14 13 13 12 12 12 12 12 12 11 11 11 11 11 10 10 10 10 10 10 10 9 9 9 9 8 8 8 8 8 8 8 7 7 7 7 7 7 7 7 7 6 5 5 5 4 4 4 4 5 5 5 6 6 7 7 7 7 7 7 7 7 7 7 8
15 15 15 15 15 15 14 14 14 15 15 15 14 14 14 14 14 13 13 13 13 13 12 12 12 11 11 11 11 11 11 11 10 10 10 10 10 10 10 9 9 9 9 9 8 8 8 8 8 8 8 7 7 7 7 7 7 6 6 6 6 5 5 5 4 4 3 3 3 4 4 4 5 6 6 7 7 7 7 6 6 6 6 6 6
14 14 14 14 14 14 14 13 13 14 14 14 13 13 14 13 13 12 12 13 13 12 12 11 11 11 10 10 10 10 10 10 10 10 10 10 10 9 9 9 9 9 8 8 8 8 8 8 7 7 7 7 7 6 6 6 6 6 6 6 5 5 5 5 4 3 3 3 3 3 3 4 5 5 6 6 6 6 6 5 5 5 5 5 6
14 14 14 14 14 14 13 13 13 13 14 13 12 12 13 13 12 12 12 13 13 12 12 11 11 10 10 10 10 10 10 10 10 9 9 9 9 9 8 8 8 8 8 8 8 8 7 7 7 7 7 7 7 6 6 6 6 6 6 5 4 4 4 4 4 4 3 3 2 3 3 3 4 5 5 5 5 4 4 4 4 4 4 5 5
13 13 13 13 13 13 13 13 13 13 13 13 12 12 12 12 11 12 12 13 13 12 12 11 11 10 10 10 10 9 9 9 9 9 9 9 8 8 8 8 8 8 8 7 7 7 7 7 7 7 7 7 7 6 6 6 5 5 5 5 4 4 4 4 3 3 3 2 2 2 3 3 4 4 4 3 3 3 3 3 3 3 3 4 4
12 13 13 13 13 13 12 13 13 13 13 13 12 11 11 11 11 12 12 12 11 10 10 10 9 9 8 8 8 8 8 9 8 8 8 8 8 8 8 8 8 7 7 7 7 7 7 7 7 7 6 6 6 6 6 5 5 5 5 4 4 4 3 3 3 3 2 2 2 2 2 2 3 3 2 2 2 2 2 2 2 3 3 3 3
Height
776 778 782 783 781 779 779 778 778 779 780 780 781 781 781 782 782 783 783 784 785 786 788 789 790 791 792 793 794 794 795 795 796 797 797 798 799 800 800 801 802 802 802 803 803 803 803 803 803 803 803 803 803 804 804 804 805 804 805 805 804 804 804 803 803 801 800 800 799 798 797 797 795 795 795 794 794 793 793 794 794 793 793 793 792
776 777 780 781 778 776 776 775 775 777 778 779 779 779 780 780 781 782 782 783 784 785 786 787 788 789 790 791 792 792 793 793 794 794 795 796 797 797 798 798 799 799 800 800 801 801 801 801 801 801 801 801 801 802 802 802 802 802 802 802 801 802 802 801 800 799 798 798 798 797 796 796 794 793 793 793 792 791 791 791 791 791 790 790 789
778 778 778 777 774 773 774 773 773 775 776 777 778 779 779 779 780 781 782 782 783 784 785 785 786 786 787 788 789 790 791 792 792 792 792 793 794 795 796 796 796 797 797 797 798 798 799 799 799 799 799 799 799 799 799 799 799 799 799 798 798 798 799 799 798 797 796 795 796 795 794 793 792 791 791 790 790 789 788 788 788 787 787 786 786
781 779 777 775 774 773 773 773 773 774 775 777 778 778 778 779 779 780 781 782 783 783 784 784 784 785 785 786 787 788 789 789 790 791 790 791 791 792 793 793 793 794 794 795 795 795 795 795 796 796 797 797 797 797 797 797 796 796 796 796 795 795 795 795 795 794 794 792 792 792 792 791 789 788 788 787 786 786 785 785 784 783 783 783 782
777 776 773 772 771 771 771 771 772 773 775 776 777 777 778 778 779 779 780 781 782 782 782 782 783 783 784 785 785 785 785 786 787 788 788 789 789 790 790 791 791 791 791 792 792 792 792 792 792 793 793 793 794 794 794 794 794 794 793 793 793 793 792 792 791 791 790 789 789 789 789 788 787 786 785 784 783 782 782 781 781 780 779 779 778
771 771 770 769 769 768 769 769 770 772 773 774 776 777 778 778 778 779 779 780 781 781 781 781 782 782 782 783 783 783 782 783 783 784 785 786 787 788 788 788 789 789 789 789 789 789 789 789 790 790 790 790 790 791 791 792 792 792 792 791 791 791 790 789 789 788 787 786 786 786 785 785 784 783 782 781 780 779 778 777 777 776 775 775 775
768 768 768 767 767 767 768 768 769 771 772 773 775 776 777 778 778 779 779 779 780 780 780 780 780 780 781 781 781 781 780 781 781 782 783 784 785 785 785 786 786 786 787 787 787 788 788 788 787 787 787 787 786 787 787 788 789 789 789 789 789 789 788 787 786 786 785 784 783 782 782 782 781 780 779 779 778 776 775 774 773 772 772 772 771
767 767 767 766 767 767 767 768 769 771 772 773 774 775 775 777 777 778 778 778 779 779 779 779 778 778 779 780 780 780 779 779 779 779 781 783 784 783 782 783 783 783 784 784 785 785 785 786 785 785 785 785 784 784 784 785 785 785 786 786 786 786 785 784 784 783 782 782 781 780 779 779 778 777 777 777 775 773 772 771 769 768 768 768 768
767 767 767 767 767 767 768 769 769 771 772 774 775 775 775 776 776 776 776 777 777 777 777 777 776 777 778 778 778 778 777 777 778 779 780 782 782 782 781 781 780 780 781 781 782 783 783 783 783 783 783 782 782 782 781 782 782 782 782 783 783 783 782 781 781 780 780 779 778 778 778 777 775 775 775 774 773 771 770 768 766 764 764 764 764
768 768 768 768 768 768 768 769 769 771 772 773 774 774 774 774 775 775 775 776 777 777 776 776 775 775 776 776 777 777 776 776 777 778 779 780 781 780 779 779 779 778 778 778 779 779 780 781 781 780 780 780 779 779 779 779 779 778 779 779 779 779 778 778 777 777 777 776 775 775 775 774 772 772 772 771 770 770 770 768 765 763 762 761 760
769 769 769 769 769 769 769 769 769 770 771 771 771 771 771 772 773 774 774 775 776 776 776 776 775 775 775 775 775 776 775 775 776 777 777 777 778 777 776 776 776 776 776 775 775 776 776 777 777 777 776 776 776 776 775 775 775 775 775 775 775 775 774 774 773 773 772 772 771 771 771 769 768 768 768 767 766 766 767 767 764 762 760 759 758
771 771 770 770 770 769 769 770 770 770 770 770 770 770 770 771 771 772 773 773 775 775 775 775 774 774 774 775 775 775 775 774 775 775 775 775 775 775 774 774 773 774 774 773 773 773 773 773 773 773 773 772 772 771 771 771 770 770 771 770 770 770 770 770 770 769 768 768 768 768 767 765 764 764 763 762 762 761 760 760 760 758 757 756 756
772 772 771 771 771 770 770 770 771 771 771 771 770 769 770 771 771 771 772 772 773 774 774 773 771 771 772 773 773 773 773 773 773 773 773 773 773 773 772 772 771 771 771 771 771 770 770 770 770 770 770 770 769 769 768 767 766 766 766 766 765 765 765 765 765 764 764 764 764 763 762 761 760 759 759 758 757 756 755 755 755 754 753 752 752
773 773 773 773 772 772 772 772 772 772 772 771 770 770 771 771 771 771 772 772 772 772 773 771 769 769 770 771 772 772 772 772 771 771 771 770 770 770 769 770 769 769 769 769 769 768 768 768 768 768 768 768 767 767 765 764 763 763 763 762 761 761 760 760 760 759 758 758 758 756 756 757 757 756 756 757 757 756 754 753 752 751 750 750 749
775 775 774 774 774 774 774 773 773 773 772 772 771 771 771 771 772 772 771 771 771 770 771 770 769 769 770 770 771 771 771 770 769 769 768 768 768 767 767 767 767 767 766 766 766 766 766 766 766 765 765 765 765 764 763 761 760 760 760 759 758 757 756 756 756 755 754 753 753 752 752 754 754 753 752 753 754 755 753 751 750 749 748 747 747
777 776 776 776 776 776 775 775 774 773 773 772 772 772 772 772 772 771 771 771 770 770 770 770 770 770 770 770 770 770 770 769 768 768 767 766 766 765 765 765 765 764 763 763 763 764 764 763 763 763 763 763 762 761 759 758 757 757 757 756 755 754 753 753 754 754 752 751 750 750 749 749 749 748 747 747 748 750 750 748 747 746 746 746 746
778 778 778 778 777 777 777 776 775 775 774 774 773 773 773 773 773 772 772 771 771 771 771 771 771 771 770 770 770 770 769 768 768 767 766 765 765 764 764 763 763 762 761 761 761 762 762 762 761 761 760 759 758 757 756 755 754 753 753 753 752 751 750 749 750 750 750 749 748 747 746 745 745 744 744 744 744 746 747 746 744 744 745 745 746
780 779 779 779 779 779 778 778 777 776 776 776 775 775 775 775 774 773 773 773 773 773 773 773 772 772 771 771 770 770 770 769 768 766 765 764 763 762 762 761 760 760 759 759 759 760 760 760 759 759 757 756 756 755 754 753 751 750 750 750 749 748 746 746 746 746 746 746 745 744 743 742 742 741 742 742 742 743 744 743 742 742 743 744 745
781 781 781 781 780 780 780 779 779 778 778 777 777 777 776 776 776 775 775 775 775 775 775 774 774 774 773 773 772 771 771 770 768 767 765 763 762 761 760 759 759 759 758 758 758 758 758 758 757 756 756 754 754 753 752 751 749 748 748 747 746 745 744 744 743 743 744 744 743 743 743 742 741 741 741 741 741 741 741 741 740 740 741 742 744
783 783 783 782 782 782 781 781 780 779 779 779 778 778 778 777 778 777 777 777 777 777 777 777 777 776 776 775 774 773 773 771 770 768 766 764 762 760 759 759 759 758 758 758 757 757 757 756 755 755 754 753 752 750 749 748 747 747 746 745 745 744 743 742 742 742 742 742 741 741 742 743 743 742 741 741 740 740 740 739 739 739 740 742 744
785 785 784 784 784 783 783 782 782 781 781 780 779 779 779 778 779 778 778 778 778 778 778 778 778 778 777 776 776 775 775 773 772 771 768 766 764 762 761 760 760 759 759 758 758 757 757 756 755 754 753 751 750 749 748 747 746 745 745 745 744 744 743 743 743 743 742 742 741 740 740 741 742 742 741 740 739 739 739 739 740 740 741 743 744
787 786 786 785 785 785 784 784 783 783 782 781 780 780 779 779 779 779 779 779 779 779 779 779 779 778 777 777 777 776 776 775 774 773 771 769 768 766 764 763 762 761 760 760 759 759 758 757 756 755 754 752 751 750 749 748 746 746 746 745 744 743 743 744 744 744 744 743 742 741 741 741 742 742 742 741 741 740 740 740 741 742 743 744 745
789 788 788 787 787 786 786 785 784 784 783 782 782 781 780 780 780 780 780 779 779 779 779 779 779 778 778 778 777 777 777 777 776 775 773 772 770 769 767 766 764 763 763 762 762 761 760 759 758 757 756 754 753 752 751 749 748 748 747 746 745 744 745 745 746 746 746 745 744 744 744 743 743 743 743 743 743 743 742 742 743 744 744 745 745
790 790 789 789 788 788 787 787 786 785 785 784 783 782 782 781 781 781 780 779 779 779 779 779 779 778 778 778 778 778 778 777 777 776 775 774 772 771 770 769 767 766 765 764 764 763 762 761 760 759 758 757 755 754 753 752 751 750 749 748 748 747 747 747 748 747 747 747 747 747 746 746 746 746 746 745 745 744 744 744 745 745 745 745 746
791 791 791 790 790 789 788 788 788 787 786 786 785 785 784 783 782 782 781 780 779 779 779 778 778 778 778 778 778 778 778 778 777 776 776 775 774 773 772 771 770 769 768 766 765 764 763 762 762 761 760 759 758 756 755 754 753 753 752 751 751 750 750 750 749 749 749 749 749 749 749 748 748 748 748 747 747 746 746 746 746 746 746 746 746
793 792 792 791 790 790 789 789 789 788 788 788 787 786 786 785 784 784 783 782 781 780 779 778 778 777 777 777 777 778 778 778 778 777 777 776 775 774 773 772 772 771 769 768 767 766 764 764 763 762 761 760 759 758 757 756 755 755 754 754 753 752 752 752 751 751 751 751 751 751 751 751 751 750 750 749 749 748 748 748 747 747 747 746 746
794 793 793 792 791 791 790 789 789 788 788 788 788 787 787 786 786 785 785 784 783 782 781 780 779 779 778 778 778 778 777 778 778 777 777 776 775 775 774 773 773 772 771 770 768 767 766 765 763 763 762 760 760 759 758 758 757 756 756 755 755 755 754 754 753 753 753 753 753 752 752 752 752 752 751 751 750 750 749 749 748 748 748 747 747
794 794 793 793 792 791 790 790 789 788 788 788 788 787 787 787 787 786 786 786 785 784 784 783 782 781 780 779 779 778 778 778 778 777 777 776 775 775 774 774 773 772 771 771 769 768 768 766 764 762 761 760 760 759 759 758 758 757 757 756 756 756 755 755 755 754 754 754 753 753 753 753 752 752 751 751 750 750 750 749 749 749 748 748 747
794 794 794 793 793 792 791 790 790 788 788 787 787 787 787 787 787 786 786 786 786 785 785 784 784 783 782 782 781 780 780 779 779 778 777 776 775 775 774 773 773 772 771 770 768 767 766 765 764 762 761 760 760 759 758 758 757 757 756 756 756 756 756 756 755 755 755 754 754 754 753 753 752 752 751 751 750 750 750 749 749 748 748 748 747
795 795 794 794 794 793 792 791 790 789 788 787 787 787 787 787 787 786 786 785 785 785 785 784 784 784 783 783 782 782 781 780 779 778 777 776 775 774 773 773 772 771 770 769 768 766 765 763 762 761 760 760 759 758 757 756 756 756 755 755 755 755 755 755 755 755 754 754 754 754 753 753 752 751 750 750 750 749 749 749 748 748 747 746 746
796 795 795 795 795 794 793 792 791 790 789 788 787 787 786 787 786 786 785 785 784 784 784 784 783 783 783 783 782 782 781 780 779 778 777 776 775 774 773 773 772 771 770 769 767 766 764 763 761 760 759 758 757 756 755 754 754 754 753 753 754 753 753 753 753 753 753 753 753 753 753 752 752 751 751 750 749 749 749 748 747 747 745 745 744
797 796 796 796 795 794 793 792 791 790 789 788 787 786 786 786 786 785 785 784 784 783 783 783 782 782 781 781 781 781 780 779 779 778 777 776 775 774 773 772 771 771 770 769 767 765 763 762 760 758 757 756 755 755 754 753 752 752 751 751 752 752 752 752 752 752 752 752 752 752 751 751 751 751 750 750 749 748 748 747 746 746 745 744 744
797 796 796 795 795 794 793 791 790 790 789 788 788 787 785 785 784 784 784 783 783 783 782 782 781 781 780 779 779 779 779 779 778 777 776 776 775 774 772 771 770 769 768 767 766 764 762 761 759 757 756 755 754 754 753 753 752 751 751 751 751 750 751 751 750 750 750 750 750 750 750 750 750 749 749 749 748 747 747 746 745 745 745 744 744
797 796 795 794 794 793 792 791 790 789 788 788 787 786 785 784 783 783 782 782 782 781 781 780 780 780 779 778 778 777 778 778 777 777 776 775 774 773 772 770 768 767 765 764 763 762 761 760 758 756 755 755 754 753 753 752 752 752 751 751 750 750 750 750 749 749 748 748 749 749 748 749 748 747 747 747 746 746 745 745 744 744 744 745 744
796 795 794 793 793 792 791 791 790 789 788 787 786 785 785 784 783 782 781 780 779 779 778 778 778 778 778 777 776 776 776 777 776 776 775 774 773 772 771 768 766 764 763 762 761 761 761 759 757 756 755 755 754 753 753 753 752 752 751 751 750 750 750 749 749 749 749 748 748 748 747 747 747 746 745 745 745 745 744 744 743 743 743 744 743
795 794 793 792 791 790 790 790 790 789 788 787 786 785 784 783 782 780 779 778 777 776 775 775 776 777 777 776 775 775 775 775 775 775 774 773 772 771 769 768 766 764 763 762 761 761 760 759 757 756 755 755 754 754 753 753 752 752 752 751 751 750 750 750 749 749 749 748 748 747 746 745 745 745 744 744 744 744 743 743 742 742 742 742 743
794 793 791 791 790 789 789 789 789 788 787 786 785 783 782 781 780 778 776 775 775 774 774 774 775 776 776 774 774 774 775 774 774 774 773 772 771 770 769 767 766 765 764 762 762 761 760 759 758 757 757 756 755 755 754 753 753 752 752 751 751 750 749 749 748 748 748 747 747 746 746 745 745 744 744 743 743 742 742 742 742 742 741 741 741
792 791 790 789 788 788 787 787 787 787 786 784 783 782 780 779 777 776 775 774 773 773 773 773 773 773 773 772 773 774 773 772 771 771 771 771 769 768 767 767 766 765 764 763 762 762 761 760 759 759 758 757 757 756 755 754 754 753 752 752 751 751 750 749 748 748 748 747 747 746 746 745 744 744 743 743 742 742 741 741 741 741 741 741 741
788 787 787 786 786 786 786 785 785 785 784 783 781 780 778 777 776 775 774 773 772 771 771 770 770 769 769 770 771 772 771 770 770 771 771 770 768 767 766 766 766 765 764 764 763 763 762 761 761 760 760 759 758 758 756 755 755 754 753 753 752 751 751 750 749 749 748 747 747 746 745 745 744 744 743 743 742 742 741 741 741 741 741 741 741
784 784 783 782 783 783 783 782 782 782 781 780 779 778 777 776 774 773 772 771 770 769 768 768 768 767 767 768 769 770 770 770 770 771 771 770 768 767 766 766 766 765 765 764 763 763 763 763 762 761 761 761 760 759 758 757 756 755 755 754 753 752 751 751 750 750 749 748 747 746 746 745 745 744 744 743 743 742 742 741 740 740 740 740 739
781 780 779 779 779 780 779 779 778 777 776 776 776 776 776 775 774 772 771 770 769 768 767 767 767 767 767 768 769 769 770 770 770 770 769 769 768 767 766 766 766 766 765 764 764 764 764 764 763 763 762 762 761 760 759 758 757 756 756 755 754 753 752 752 751 751 750 749 748 747 747 746 745 745 744 744 743 742 741 740 740 739 739 739 739
776 776 775 775 775 775 775 775 774 773 772 771 771 772 773 772 771 771 771 769 769 768 767 767 767 767 767 767 768 769 769 769 769 768 768 767 767 767 766 766 766 765 764 764 764 765 764 764 764 764 763 762 762 761 760 759 758 757 756 756 754 754 753 752 752 751 750 749 749 748 747 746 746 745 744 743 742 742 741 740 739 739 738 738 738
773 772 772 772 771 771 772 772 771 770 769 768 768 768 769 769 769 770 770 769 768 767 767 767 767 767 767 767 768 768 768 768 768 767 767 767 767 767 766 766 766 765 764 764 765 765 764 764 764 764 763 763 763 762 761 760 759 758 757 756 755 754 753 752 752 751 751 750 750 749 748 747 746 745 744 743 742 741 740 739 738 738 737 737 736
770 770 769 768 768 768 768 768 768 767 766 765 765 765 765 766 767 768 768 767 766 765 765 766 766 766 767 767 767 767 767 767 767 767 767 767 767 766 766 766 765 764 764 764 765 764 764 764 764 764 763 763 763 762 761 760 759 758 757 756 755 754 753 753 753 753 752 752 751 750 749 748 746 745 744 743 742 741 740 739 738 737 737 736 735
767 767 766 765 764 764 763 764 764 763 762 762 761 761 762 763 763 764 764 764 763 762 763 765 766 767 767 767 767 767 767 767 767 767 766 766 766 766 766 765 764 763 764 764 764 764 764 764 763 763 762 762 762 761 761 760 759 758 757 755 754 753 753 753 753 753 753 753 752 751 749 748 747 746 745 744 743 741 740 739 738 737 736 736 735
763 762 762 762 761 760 760 760 760 759 759 758 757 757 757 758 759 759 759 759 760 760 762 764 766 767 766 766 767 767 767 767 767 766 766 766 766 765 765 764 764 763 763 764 764 764 764 763 763 762 762 761 761 761 760 760 759 758 756 755 754 753 753 753 753 753 753 753 752 751 750 749 747 746 745 743 742 741 740 739 738 737 736 735 734
760 759 759 759 758 757 757 757 757 756 755 754 754 753 754 754 755 756 756 756 757 758 760 763 765 766 766 766 767 767 767 767 766 766 766 766 765 765 764 763 763 763 763 762 762 763 763 762 762 761 761 760 760 759 759 759 758 757 755 754 754 753 752 752 752 752 753 753 752 750 749 748 747 746 744 743 742 740 739 738 737 737 736 735 734
758 757 757 756 755 754 753 753 754 753 751 750 750 751 751 751 752 754 755 755 755 756 758 760 763 765 766 766 766 766 766 766 766 765 765 765 765 764 764 763 763 762 762 761 761 762 762 761 761 760 760 759 758 758 758 758 757 756 754 753 753 752 752 752 751 752 752 752 751 750 749 748 746 745 744 742 741 740 739 738 737 736 736 735 734
757 756 755 753 752 750 749 748 749 750 748 746 747 748 748 748 750 752 753 753 753 754 756 758 760 763 765 765 765 765 766 765 765 765 765 764 764 764 763 763 762 762 761 760 760 760 760 760 759 759 758 758 757 756 756 756 755 754 753 752 752 751 751 751 750 751 751 751 750 749 748 747 746 745 744 742 741 740 739 738 737 736 736 735 734
756 754 753 751 749 748 747 746 746 745 744 743 743 744 745 746 748 749 750 750 751 752 754 756 759 761 763 763 764 765 765 764 764 764 764 764 763 763 762 762 761 760 760 760 759 759 758 758 758 757 757 756 755 755 755 754 753 752 752 751 751 750 750 749 749 749 749 749 749 748 747 746 746 745 744 742 741 740 739 738 738 737 736 735 734
754 752 750 749 747 746 745 743 743 742 740 740 740 741 743 745 746 747 747 747 749 750 752 755 758 760 761 763 764 765 765 764 764 763 763 763 763 762 761 761 760 759 759 758 758 757 757 757 756 756 755 754 754 754 753 752 751 751 750 750 749 749 748 748 748 748 748 747 747 747 747 746 745 745 744 743 742 741 740 739 738 737 736 735 734
Wind_Speed
9 8 13 19 20 19 19 21 21 19 17 17 17 17 16 15 15 17 19 18 18 18 17 16 15 15 15 15 16 16 17 17 16 15 15 14 14 13 12 12 13 14 14 15 15 15 16 17 17 18 18 18 19 18 19 20 18 19 19 19 21 20 21 19 12 10 18 22 22 23 21 19 20 19 17 17 18 19 20 21 23 23 24 25 27
7 12 20 24 23 20 20 20 20 18 18 18 18 17 17 16 16 15 15 17 19 19 17 17 16 17 17 17 17 17 17 17 18 18 17 16 15 15 14 14 14 14 14 15 15 15 16 17 17 17 17 18 19 19 18 19 18 20 21 21 22 22 20 20 17 11 15 21 21 22 22 21 22 22 20 20 20 21 20 21 22 23 25 26 28
12 18 22 22 20 18 17 16 14 14 15 16 16 16 16 15 15 15 14 14 16 17 18 18 17 17 18 19 18 18 18 17 18 19 18 18 18 17 16 16 16 16 15 15 16 16 17 18 19 18 17 18 19 19 19 20 19 19 20 20 22 23 22 22 20 16 16 19 20 20 20 21 22 22 21 21 21 21 21 23 24 24 25 26 27
14 16 18 18 15 13 13 11 8 8 10 12 13 15 18 17 15 15 15 13 14 16 17 18 17 17 18 19 19 19 19 20 20 19 19 19 19 18 18 19 18 18 18 17 17 17 17 19 20 20 20 19 19 20 20 21 21 21 21 21 20 21 21 22 23 21 19 18 20 20 20 21 22 22 22 22 22 22 23 24 25 26 26 25 26
12 12 13 12 11 10 9 8 7 8 10 11 12 13 16 18 18 17 17 16 16 17 17 17 16 17 16 16 19 20 21 22 22 21 20 20 20 20 19 20 20 20 20 20 20 20 19 19 19 19 21 22 21 22 22 22 22 23 24 23 22 21 21 21 22 23 22 20 20 21 22 22 22 22 22 22 22 22 23 25 26 27 27 27 27
6 7 7 6 7 7 8 9 10 9 11 12 12 12 13 15 16 17 18 17 17 18 18 17 17 17 18 18 20 21 21 22 23 23 22 21 21 21 21 21 21 21 20 20 21 21 21 21 21 20 21 22 23 23 24 24 23 22 22 23 23 23 23 24 23 22 23 23 21 21 21 22 23 24 24 23 22 22 22 23 25 26 25 25 26
1 2 2 4 6 7 8 9 10 11 11 11 10 10 10 12 14 15 17 18 18 19 20 20 20 19 19 20 22 23 21 19 19 19 19 21 22 22 22 23 23 23 24 23 21 20 21 21 22 22 22 23 23 23 24 25 25 24 24 23 23 23 24 25 24 22 22 22 22 22 22 22 23 25 25 24 24 24 23 22 23 25 26 25 24
2 2 2 4 6 8 9 8 8 9 10 9 9 8 9 11 12 14 16 17 19 20 20 21 22 21 19 20 23 24 20 15 12 9 9 14 19 22 23 24 23 22 22 23 22 21 22 23 23 23 22 23 23 23 24 25 25 25 25 23 22 23 23 24 23 22 21 20 20 21 22 22 23 25 25 24 23 24 26 24 23 25 27 26 26
5 4 3 4 6 7 8 8 7 7 6 7 7 8 9 11 11 12 14 15 17 19 20 20 21 21 22 22 20 18 15 14 16 13 9 12 17 21 23 23 22 21 20 20 21 22 23 24 24 25 25 25 24 24 24 24 24 24 24 23 23 23 24 24 22 21 21 20 20 20 18 18 20 21 20 21 21 23 26 26 24 25 25 25 26
8 7 6 6 6 6 8 8 6 5 4 5 7 8 10 12 11 12 13 14 14 16 18 19 20 19 21 22 20 17 15 15 17 17 16 17 18 19 20 19 19 20 20 20 21 21 22 22 24 26 28 28 28 27 26 26 26 26 26 26 26 25 25 25 24 23 21 20 20 19 17 18 22 22 21 24 25 25 26 25 23 23 24 22 23
11 11 10 10 10 10 10 10 8 6 5 4 5 7 9 9 10 10 12 12 13 14 15 16 16 16 17 19 20 20 20 19 19 20 23 23 21 20 20 19 19 19 19 21 21 22 22 24 26 28 28 29 30 30 30 30 31 32 33 32 32 31 29 27 25 25 24 22 22 21 19 21 25 27 27 27 27 27 28 28 25 22 19 15 14
12 13 12 11 12 13 13 13 12 10 8 7 6 5 6 6 7 8 9 10 10 11 12 14 14 14 14 14 15 16 18 19 20 23 26 27 25 24 23 22 21 20 18 18 19 20 21 22 24 24 25 26 27 28 28 29 30 33 35 36 37 37 37 34 31 29 27 24 22 22 23 25 27 28 29 28 28 28 29 29 27 23 18 14 13
13 13 13 13 13 14 14 14 13 12 11 9 8 7 6 7 8 7 8 8 9 9 11 14 15 14 13 12 13 15 16 17 18 20 23 25 25 26 26 25 24 23 22 20 20 21 22 23 24 25 25 25 25 26 27 27 28 29 31 35 38 39 40 41 40 39 36 31 26 26 28 28 26 28 31 30 28 26 24 22 22 20 16 17 17
14 14 14 14 14 14 14 14 12 10 10 9 8 8 9 9 9 9 9 9 9 9 11 13 14 14 14 12 13 15 15 15 15 16 18 20 21 23 25 26 26 26 25 24 23 23 23 24 24 26 27 27 27 26 25 25 25 25 25 29 33 36 38 40 42 44 44 41 38 36 35 31 28 29 31 26 21 21 21 20 21 20 16 15 14
14 14 14 14 14 14 14 14 13 12 11 10 9 10 10 10 10 12 11 9 8 8 9 11 12 12 11 11 10 11 11 11 13 14 15 17 18 20 20 22 23 25 25 24 23 23 23 23 23 24 27 28 27 25 24 23 23 23 23 24 26 30 34 36 38 40 41 42 41 40 39 38 36 38 40 36 30 27 24 22 22 20 15 12 9
14 14 15 14 14 14 13 14 14 14 14 13 12 12 12 11 12 12 11 10 10 9 9 10 10 9 9 8 7 6 7 8 9 11 13 14 15 16 16 17 19 21 22 22 22 21 22 23 25 27 28 27 26 26 26 26 26 24 23 23 22 22 25 28 31 33 32 31 31 32 35 37 38 39 40 40 35 28 23 19 15 12 10 8 5
15 15 15 14 14 14 14 14 14 14 15 14 14 14 14 14 14 13 12 14 14 13 13 12 12 11 10 9 7 6 7 9 10 10 11 13 14 15 16 17 17 18 20 21 20 20 20 20 21 23 24 22 22 23 24 25 24 22 21 23 22 21 21 23 26 29 29 28 28 28 28 30 32 31 30 28 23 18 16 14 10 8 8 5 3
15 15 15 15 15 15 14 14 14 14 15 14 14 15 15 16 17 17 17 17 17 16 16 15 16 15 15 14 11 8 10 13 12 11 11 12 13 14 15 15 16 18 19 20 20 19 19 17 15 15 14 14 16 17 18 19 19 18 17 17 18 20 19 17 16 17 18 19 20 18 16 16 17 17 17 17 15 13 12 12 11 10 9 7 5
15 15 16 16 16 15 15 15 15 15 14 14 14 14 14 14 16 18 18 16 16 17 17 18 18 18 20 22 20 16 16 19 18 16 14 13 11 11 11 11 13 14 15 15 14 13 11 9 9 10 13 15 15 16 18 19 19 18 16 14 14 15 14 13 12 11 10 9 9 8 7 6 6 7 8 9 10 9 9 10 9 9 9 8 6
14 14 15 15 16 16 15 16 16 15 14 12 12 12 13 13 14 15 15 13 13 14 15 16 17 16 18 22 25 23 21 21 21 21 20 18 17 13 10 9 10 11 11 12 12 10 9 8 10 12 13 15 16 16 16 16 16 14 12 10 11 11 12 11 11 9 8 7 6 4 3 4 4 4 4 4 5 5 3 2 2 4 6 6 6
14 14 15 15 15 15 15 15 16 15 14 13 12 11 12 12 13 13 13 12 12 13 13 13 13 13 14 16 19 22 22 22 21 21 22 22 22 20 17 14 13 12 10 11 11 12 11 12 12 11 11 12 12 12 12 12 11 9 7 6 5 5 6 6 6 5 3 2 1 1 2 4 5 6 7 7 8 7 4 3 3 1 3 5 5
13 13 14 14 14 15 15 14 15 15 15 15 15 14 12 12 11 10 10 11 11 12 12 11 10 10 11 12 12 14 17 20 20 20 21 23 23 23 20 17 15 14 12 12 12 12 13 15 15 15 14 14 13 13 12 13 12 12 11 11 10 8 6 3 2 3 4 6 7 8 9 9 9 10 11 11 11 9 6 4 3 2 4 4 4
12 12 13 13 13 14 14 14 14 14 15 15 17 18 15 12 10 8 7 7 8 9 10 9 7 7 8 9 9 9 11 14 15 17 20 22 22 22 20 18 17 15 13 13 13 13 15 16 16 16 16 16 16 16 15 16 16 16 15 14 13 12 11 9 9 10 11 11 12 12 12 11 11 11 11 11 10 10 8 5 3 2 4 5 6
10 11 11 12 12 12 13 14 13 13 13 14 16 18 19 16 12 9 7 5 4 7 8 6 5 5 7 8 8 7 7 9 10 11 14 17 20 21 20 19 17 16 15 14 14 15 16 15 15 15 15 16 16 16 16 17 17 17 16 16 15 14 14 14 14 13 13 13 12 11 10 10 9 9 8 8 8 8 8 6 4 2 1 3 5
10 10 9 10 10 10 10 11 12 13 12 12 14 16 17 18 18 16 13 10 8 6 5 3 3 5 6 7 7 7 6 6 8 8 9 11 13 16 18 18 16 15 15 14 13 13 14 14 14 14 14 15 15 15 16 16 15 15 15 15 15 15 15 14 13 13 13 12 10 10 9 8 8 7 6 6 6 6 6 5 4 3 3 3 4
9 9 8 8 8 8 8 7 8 10 11 11 11 12 13 15 17 17 16 16 14 12 8 6 6 5 4 6 7 6 6 6 7 8 8 9 9 10 11 12 13 12 12 10 9 10 12 13 13 13 14 15 15 14 15 14 14 14 14 14 14 13 13 12 12 11 11 10 9 8 7 6 6 6 6 7 7 7 7 7 6 6 5 3 2
9 9 9 9 8 7 8 7 5 5 7 7 8 9 9 10 13 14 14 15 15 15 15 14 14 13 10 6 4 5 7 8 7 8 8 8 8 8 7 7 8 8 7 7 5 5 6 8 9 8 9 11 12 11 12 12 12 12 12 11 11 11 11 10 9 9 8 7 7 7 6 5 5 6 6 7 7 8 8 7 5 6 6 5 4
6 7 8 9 10 9 8 8 8 4 2 3 4 6 6 6 8 10 10 11 12 12 13 13 13 14 14 14 12 9 10 10 9 8 8 7 6 6 5 5 5 4 5 5 5 6 6 5 4 2 1 3 4 4 5 5 6 7 8 8 7 8 8 8 7 7 6 7 8 8 7 6 6 6 5 5 5 6 6 5 4 5 6 5 6
6 6 6 7 9 11 10 8 9 10 5 2 3 2 3 5 6 6 6 6 7 8 9 10 11 11 11 12 12 12 11 9 9 8 7 7 8 7 7 6 5 5 5 7 8 10 11 10 8 6 3 1 1 1 1 2 1 2 4 4 4 4 5 5 5 5 5 5 5 6 6 5 4 5 5 4 4 3 4 4 4 5 7 8 10
7 6 6 7 9 11 11 8 8 11 10 2 4 4 3 5 5 5 6 4 3 3 4 5 7 7 7 6 7 8 8 7 7 7 7 8 8 9 10 9 9 10 10 11 13 14 13 10 7 5 2 1 1 1 2 3 4 3 1 2 2 0 1 1 3 3 3 4 4 4 4 5 6 7 7 6 5 5 4 2 2 4 8 11 13
8 8 8 8 9 11 11 9 8 9 10 6 2 6 8 8 6 5 6 5 4 3 2 2 2 2 3 3 4 5 6 7 7 7 8 9 9 10 11 11 11 12 13 14 15 17 16 12 7 5 5 5 5 3 3 4 6 7 6 6 3 1 1 2 1 2 2 3 4 4 6 6 6 5 5 5 6 5 6 4 3 5 9 13 13
7 7 6 6 10 13 12 9 8 8 9 9 6 3 5 9 10 8 7 6 5 5 5 4 2 1 0 1 2 3 4 6 7 8 10 10 11 12 13 13 14 13 13 16 17 18 21 17 9 5 6 5 3 1 2 2 2 4 7 10 9 5 3 3 3 1 2 4 5 5 5 4 5 6 2 2 7 7 4 6 7 7 8 11 10
7 8 7 5 8 12 12 10 8 8 8 8 9 10 7 4 6 9 10 9 8 7 7 6 6 5 4 3 3 2 3 5 6 9 11 12 13 15 16 17 19 18 18 19 19 19 22 21 11 5 7 5 2 2 5 5 5 4 3 3 7 8 5 4 5 4 3 6 7 4 2 1 4 6 3 3 4 6 4 6 5 3 6 12 10
8 9 9 7 7 10 10 9 10 11 10 9 9 9 11 11 9 5 8 11 12 12 11 10 8 7 6 5 3 2 2 4 5 7 11 12 14 16 17 19 22 22 21 22 22 21 23 22 12 6 7 8 7 7 7 9 10 10 9 7 2 6 8 6 6 4 2 5 6 5 0 1 3 3 2 4 2 3 5 6 2 7 8 9 10
9 11 11 9 8 8 7 8 11 13 14 14 12 9 10 13 14 13 11 9 11 14 16 16 12 9 8 7 4 2 1 2 6 9 11 14 14 14 16 21 22 18 14 17 19 19 20 18 12 9 9 10 10 9 9 12 14 14 12 12 10 3 4 4 1 3 7 7 4 3 1 4 8 7 4 2 2 6 7 7 2 5 2 2 4
10 10 11 11 10 6 6 9 12 13 15 16 16 13 13 15 17 18 15 13 13 13 13 17 17 12 9 8 6 3 1 2 7 11 14 16 14 13 17 22 20 15 12 11 10 10 13 14 15 14 14 14 13 12 11 10 11 12 11 12 13 10 5 5 8 9 10 12 10 6 4 5 8 7 3 2 4 7 8 7 5 3 1 2 5
11 11 12 12 10 7 7 9 12 13 15 17 18 17 16 17 18 18 16 13 13 13 9 9 14 16 15 12 7 3 0 4 9 14 17 17 16 16 18 18 15 14 14 13 13 13 15 16 16 16 16 17 17 17 16 15 13 12 12 12 12 11 9 9 9 7 6 11 13 11 8 8 9 9 7 5 5 5 5 9 12 7 3 3 6
13 15 15 15 15 13 11 11 12 13 15 17 18 18 18 18 17 17 16 14 13 14 14 12 14 18 19 15 9 4 2 6 11 16 20 21 19 18 15 13 12 12 13 13 13 14 15 15 16 16 16 17 18 19 19 19 18 17 17 17 15 14 14 13 11 9 7 10 13 14 15 15 15 15 14 11 9 8 7 8 9 7 4 4 7
15 17 18 18 19 17 13 11 11 13 15 17 18 18 19 17 16 15 15 15 15 15 16 16 15 12 9 7 5 3 5 8 10 13 18 22 20 13 9 10 11 11 12 13 11 11 13 14 15 16 16 16 18 18 18 18 18 18 18 19 19 18 18 17 17 18 17 14 13 14 15 16 15 16 16 14 13 13 11 9 8 7 8 9 9
18 19 18 16 16 17 15 12 11 12 16 18 17 16 16 16 16 16 15 14 15 16 15 13 12 8 2 2 2 5 7 8 9 11 15 19 18 12 10 11 11 12 14 13 9 10 13 14 13 14 15 16 16 17 17 17 17 17 17 18 18 18 18 17 18 19 19 19 18 18 19 19 18 18 17 16 16 16 15 14 13 12 11 11 12
20 20 17 13 14 18 19 17 14 14 15 15 14 13 15 18 18 16 14 13 14 15 14 11 9 5 1 2 1 5 8 9 9 11 14 16 14 10 9 10 11 12 12 10 11 11 12 12 12 13 14 14 15 16 16 16 15 15 16 16 17 17 17 16 16 17 17 18 19 20 21 21 22 20 18 18 18 17 16 15 15 15 14 13 13
21 21 20 18 17 18 19 19 18 18 15 13 13 15 16 16 14 13 15 15 15 13 12 11 9 5 2 2 0 4 8 8 8 10 11 10 10 11 11 10 11 10 8 9 11 11 10 10 12 12 12 13 14 14 14 14 15 15 15 15 14 14 14 14 14 16 18 19 20 21 22 21 21 20 19 18 18 17 16 15 15 16 16 16 17
21 22 22 20 17 17 18 19 21 22 19 17 16 15 12 10 9 11 15 17 16 14 12 12 10 7 4 4 2 4 7 7 7 8 8 9 10 11 10 10 10 8 7 8 9 9 9 9 10 11 11 12 13 13 13 13 13 14 14 14 12 10 10 11 13 15 18 20 20 20 20 19 19 19 19 20 20 19 17 16 16 16 17 17 18
22 23 22 20 19 20 21 22 24 24 22 18 14 12 10 8 10 13 16 17 17 14 10 8 7 6 5 5 6 7 7 7 6 7 8 9 10 10 9 10 9 6 5 6 9 9 8 9 9 9 10 11 11 13 13 12 13 14 14 12 8 7 8 10 13 16 18 18 18 18 19 19 19 20 20 20 21 21 20 20 20 19 18 16 15
23 24 25 24 22 21 21 22 23 24 22 19 16 14 13 12 12 16 19 19 16 10 5 5 7 8 8 8 7 7 7 7 7 7 8 9 10 9 9 10 8 5 5 7 8 8 9 10 10 9 9 10 11 12 13 13 13 13 10 6 3 4 6 9 13 14 14 15 16 17 18 18 19 20 20 21 21 19 19 19 18 17 17 16 15
22 23 24 25 24 22 21 22 23 24 23 21 19 17 16 15 17 21 23 19 11 3 0 3 7 9 9 7 7 8 8 7 7 7 8 8 9 10 10 9 7 6 6 7 7 8 10 11 10 10 10 10 11 12 12 13 13 10 6 4 4 3 5 9 12 12 12 14 16 17 17 18 19 21 21 20 18 16 15 16 17 18 18 18 16
21 22 23 24 24 23 23 23 24 26 26 24 20 17 16 14 13 14 14 10 5 4 3 4 7 8 8 8 9 9 8 7 8 8 8 9 10 10 9 9 9 8 7 6 6 8 10 10 10 10 11 10 10 11 12 12 11 9 7 8 7 5 6 10 13 14 14 15 16 16 17 18 20 22 21 19 17 17 16 15 14 16 18 18 16
21 22 23 25 25 25 24 24 26 28 28 25 22 19 16 12 9 11 11 8 7 9 8 6 6 7 7 8 10 10 9 9 9 8 8 9 9 9 9 10 11 10 9 8 8 9 10 10 11 12 12 11 10 11 11 11 10 10 11 11 8 7 8 11 15 17 16 16 16 16 17 18 20 21 21 18 16 15 14 12 12 15 17 18 17
22 22 23 25 25 23 21 23 25 26 24 20 19 18 16 12 10 13 16 15 12 10 8 7 7 7 8 9 9 9 9 9 9 8 9 9 9 9 10 11 11 11 10 10 10 10 10 11 13 14 14 12 11 11 12 11 11 12 13 12 9 9 11 13 16 17 17 16 16 15 16 18 19 19 19 17 15 14 14 15 15 16 17 17 18
22 23 23 23 21 18 18 21 23 23 22 19 17 16 16 15 16 19 20 17 13 10 8 8 7 5 4 4 6 8 9 10 9 10 10 10 11 12 12 11 10 10 11 11 11 10 11 13 14 14 13 13 12 12 13 12 12 13 14 14 13 13 13 13 14 15 16 16 14 13 15 17 17 16 17 17 15 14 14 15 15 16 17 19 19
23 23 24 24 22 21 21 22 23 25 24 20 16 14 15 16 16 15 12 7 3 3 4 4 5 6 6 7 9 11 12 12 11 11 12 12 13 14 13 11 10 11 12 11 11 11 12 13 14 13 12 13 13 14 14 14 14 15 15 14 13 12 12 11 12 13 13 12 10 11 14 17 16 14 14 16 16 15 14 15 16 17 17 18 19
Wind_Direction
218 208 232 241 232 224 221 215 214 219 221 221 220 219 222 223 217 211 209 212 217 220 224 229 234 237 238 237 235 232 230 229 225 223 225 225 223 227 236 242 245 245 243 242 243 244 244 241 240 242 241 239 241 242 242 242 243 244 243 244 247 251 250 246 244 262 264 264 269 272 273 275 273 270 265 255 248 247 244 239 240 243 244 248 253
224 225 231 235 230 225 226 219 213 217 222 226 227 224 227 228 224 226 225 218 217 218 221 226 229 233 236 238 243 243 239 235 232 227 223 224 227 228 230 235 241 245 243 240 243 245 246 246 245 244 244 241 238 238 241 241 239 241 242 240 243 246 248 245 240 245 260 263 265 268 270 269 265 262 261 258 252 246 245 244 243 245 246 247 250
211 223 231 234 231 230 235 231 223 223 226 231 235 235 239 237 227 234 243 235 225 221 224 230 230 231 234 235 240 247 249 246 243 236 227 223 227 231 236 239 240 243 246 244 245 245 244 244 245 244 245 246 243 238 239 242 241 243 244 240 238 239 241 244 243 239 246 257 261 263 263 261 259 257 254 256 256 249 244 246 247 246 246 245 247
203 216 229 236 239 240 243 245 249 251 239 235 236 238 244 247 239 237 244 248 243 237 238 242 242 239 236 234 236 241 246 249 249 247 240 233 231 233 239 243 242 242 243 246 249 250 247 244 242 241 240 243 248 246 242 242 243 247 252 252 248 244 240 239 241 242 243 248 252 255 260 262 262 259 252 250 251 249 246 247 247 246 245 246 249
194 204 221 234 243 242 238 243 259 269 261 254 252 250 252 254 252 248 247 250 253 252 250 249 251 253 250 245 244 242 241 242 243 245 247 247 243 240 241 244 246 246 243 243 246 249 250 250 248 243 237 234 238 244 246 245 245 247 250 253 255 256 255 250 246 244 243 246 251 253 255 261 266 267 262 255 251 247 244 246 248 248 247 246 247
182 195 217 239 247 239 235 241 246 252 259 258 259 264 267 266 263 258 253 252 254 256 256 253 251 253 255 255 253 251 245 241 240 241 243 247 248 247 248 248 248 250 252 252 250 248 249 250 250 247 242 235 233 237 241 244 246 248 249 251 252 253 257 260 259 253 245 244 249 254 254 255 259 262 262 262 262 257 250 247 249 251 251 249 247
181 206 235 254 253 248 248 249 244 242 249 251 247 256 269 273 272 268 261 256 255 257 259 258 254 251 251 255 258 259 256 249 246 245 243 247 249 248 248 249 248 249 253 257 260 260 258 255 252 249 245 240 237 236 237 240 242 246 249 251 253 252 253 257 260 260 254 247 245 248 252 254 256 258 259 260 261 262 259 253 250 251 252 253 253
351 337 289 276 275 269 264 266 261 253 255 253 249 256 269 272 270 269 266 263 261 263 263 260 257 254 255 260 263 264 263 260 260 262 255 256 261 260 255 250 248 247 248 251 258 264 267 267 265 262 257 252 247 241 238 237 237 239 243 247 250 252 254 255 256 258 260 257 251 248 247 249 252 255 258 257 255 255 255 252 250 250 250 251 252
1 355 338 313 303 294 289 285 275 268 269 263 265 274 275 269 265 261 261 260 262 266 266 265 266 264 260 262 266 268 269 271 272 270 266 269 275 276 270 260 252 250 250 252 257 261 265 267 269 270 270 266 262 256 249 243 239 237 239 242 245 248 251 253 254 255 257 258 259 259 259 257 255 255 256 255 254 257 257 254 250 250 252 254 255
20 11 4 354 342 332 325 314 299 296 303 293 287 285 278 274 272 268 265 262 264 268 269 271 274 269 259 258 264 269 270 272 270 261 256 264 276 281 281 277 268 260 256 256 259 262 264 266 267 268 269 269 268 267 262 257 253 248 245 245 245 245 247 249 250 251 253 253 253 256 259 259 258 260 262 260 260 266 271 270 264 256 254 257 260
30 20 10 5 3 360 354 354 354 350 344 329 303 286 281 282 280 277 279 277 275 278 283 283 280 275 271 270 272 273 271 269 265 256 252 259 271 282 286 287 284 276 265 258 257 259 262 266 268 266 264 264 265 265 263 261 259 256 254 252 249 248 247 247 247 248 250 251 250 247 248 252 255 255 257 258 259 262 264 267 269 263 254 254 259
31 24 15 13 15 12 8 12 16 11 4 359 340 313 306 313 306 297 299 301 296 296 300 298 294 297 296 291 288 283 275 272 268 262 259 261 267 277 285 288 287 285 278 269 264 262 264 268 272 272 269 266 265 265 263 261 261 260 258 255 254 254 253 251 250 250 249 249 250 248 247 250 253 252 252 255 258 256 250 251 258 259 257 259 264
30 24 20 21 25 22 15 17 23 23 23 20 5 352 3 7 351 332 323 323 321 316 303 294 294 303 303 295 293 289 282 280 278 272 270 270 270 272 278 284 286 283 279 277 274 270 268 269 274 280 282 281 278 274 270 267 267 265 261 258 256 257 257 256 255 254 252 250 250 251 251 252 254 255 256 259 260 259 255 252 253 256 260 262 261
31 26 23 23 24 26 24 23 26 28 32 31 12 5 18 20 7 356 350 339 328 317 306 300 301 305 306 298 292 290 290 293 292 286 280 279 278 277 277 279 282 281 280 278 278 277 275 275 277 279 283 286 288 288 283 279 277 275 270 264 260 258 258 259 258 257 256 255 253 254 255 257 263 269 272 277 284 286 283 273 265 265 267 259 251
36 30 28 26 24 25 25 26 28 31 36 34 21 20 26 23 15 13 9 0 345 333 332 331 325 323 324 318 305 301 305 302 296 292 287 283 281 282 283 282 281 281 280 278 278 278 278 278 279 282 286 288 288 289 289 288 290 289 284 277 271 266 264 263 262 262 261 259 259 260 262 265 270 274 275 276 282 287 284 275 267 265 256 241 235
39 35 32 30 29 28 26 27 28 30 34 35 30 29 29 22 17 13 14 21 21 19 22 17 6 360 356 350 343 338 333 321 307 297 292 289 286 286 287 287 285 284 284 282 283 283 282 282 281 281 284 286 285 285 285 287 292 295 293 291 288 279 273 271 270 270 269 268 269 273 276 275 273 271 269 269 272 275 272 265 258 249 238 230 231
40 38 36 36 36 35 32 31 32 32 35 36 36 35 33 33 33 32 34 41 45 47 48 46 43 37 29 26 29 21 359 344 330 314 300 294 291 292 293 292 290 290 289 289 291 291 293 295 290 283 280 281 284 286 287 288 293 296 295 296 295 290 287 287 282 279 279 277 277 279 279 275 271 267 267 270 271 266 257 254 251 248 253 255 243
40 38 37 38 41 42 39 36 37 39 40 40 40 39 41 45 48 49 52 53 53 55 56 54 53 51 46 43 45 41 23 10 357 342 325 310 296 292 292 291 290 289 289 289 290 289 288 289 287 284 288 293 294 296 296 297 300 301 298 298 298 296 297 297 291 288 286 279 275 277 279 275 272 270 270 270 268 260 256 259 259 255 252 242 228
39 39 38 38 39 40 39 37 37 40 43 45 47 45 45 53 56 53 54 56 55 55 58 59 58 56 50 47 47 46 37 28 22 16 7 355 338 318 305 299 299 301 302 302 302 299 294 291 293 299 306 308 306 303 300 299 300 301 298 294 293 290 289 286 284 290 294 283 277 286 299 297 288 282 278 276 278 280 274 264 257 252 243 229 217
37 38 38 38 39 38 36 35 35 35 34 39 53 59 56 59 64 60 57 59 61 62 63 64 61 58 52 47 44 42 38 33 31 28 25 21 17 12 7 354 337 330 330 335 342 346 346 340 330 321 318 317 315 312 309 307 307 307 305 297 287 280 279 283 287 290 288 280 275 283 311 334 340 332 325 324 332 336 317 264 245 246 233 215 200
36 37 38 37 37 37 36 36 36 33 25 21 33 57 69 69 69 70 69 70 72 72 71 67 63 60 57 49 42 39 36 34 34 34 33 32 30 31 36 33 24 17 13 14 16 14 15 17 11 3 1 360 355 349 347 348 348 353 1 359 338 313 302 305 311 309 290 264 221 106 54 40 38 35 30 27 23 20 30 75 87 149 182 178 184
37 36 36 37 38 37 35 36 37 35 27 18 17 30 54 71 72 72 78 82 83 82 79 71 64 61 62 58 51 43 36 33 36 40 39 38 36 36 39 42 44 43 39 37 34 31 34 37 35 32 31 28 29 30 30 33 41 47 45 40 40 43 42 37 41 61 78 85 80 73 66 61 56 49 43 44 45 42 48 73 96 143 175 186 196
40 38 35 35 37 37 35 33 34 36 32 24 18 20 31 51 66 69 73 80 91 98 92 80 68 61 61 64 67 61 41 29 33 42 45 42 40 38 39 44 50 52 51 48 45 44 46 47 47 47 47 47 49 52 54 57 58 58 55 52 53 60 70 79 81 77 76 75 71 67 61 55 54 52 49 49 52 53 58 71 94 144 185 208 219
37 38 37 34 32 35 38 34 30 32 34 33 28 23 22 26 31 37 45 50 81 102 99 87 74 68 65 64 69 76 57 25 18 30 41 43 41 39 38 41 49 58 61 59 57 56 57 58 58 56 54 54 56 57 57 57 57 57 59 60 63 69 75 78 78 76 74 71 68 66 63 60 61 60 58 58 61 64 68 71 76 93 181 235 241
32 31 34 36 30 28 36 40 39 34 31 36 38 31 26 23 18 16 18 16 22 53 84 99 93 90 94 90 80 76 66 35 13 9 14 21 31 38 40 38 42 54 62 64 64 64 63 61 58 56 55 55 55 55 55 55 57 59 62 67 72 76 78 78 77 74 69 64 62 61 62 64 66 64 59 55 49 42 32 19 9 359 331 300 279
28 23 22 29 29 25 25 33 49 52 41 37 42 40 35 31 25 18 13 10 8 8 6 19 41 52 88 117 114 102 80 48 25 15 8 357 357 13 31 37 39 44 48 54 63 71 76 72 62 57 59 57 56 59 61 61 61 61 62 66 70 74 77 75 72 67 60 54 54 54 49 49 50 40 27 15 9 6 360 356 359 356 346 340 318
22 20 15 13 11 15 14 3 11 74 72 49 44 48 46 40 37 32 23 15 11 6 5 13 18 10 6 25 74 109 93 60 22 4 3 359 355 358 7 21 29 26 17 17 27 46 69 69 56 52 60 59 55 58 61 60 60 58 55 54 56 59 59 53 53 60 60 48 36 26 22 27 20 2 358 1 3 3 3 7 9 348 335 341 340
14 16 16 13 1 353 357 354 343 350 84 96 52 44 54 65 57 50 44 35 27 21 18 20 18 11 9 10 11 26 46 37 9 352 348 347 351 352 343 348 8 10 346 328 310 299 300 310 329 335 59 74 58 53 45 37 41 42 38 37 39 38 36 28 22 27 28 24 16 5 359 6 359 349 355 2 358 359 6 13 10 331 313 301 289
357 7 15 22 4 345 342 352 344 336 341 146 152 48 59 106 105 86 76 64 48 42 39 33 29 28 27 19 11 12 15 5 353 349 341 328 324 323 315 307 298 292 296 294 293 300 298 282 271 273 260 202 101 30 323 294 294 355 11 25 30 13 4 360 348 343 349 358 353 338 333 332 325 325 321 300 285 305 341 351 342 312 299 279 265
347 358 11 20 4 342 339 348 343 334 340 344 175 165 124 132 146 136 120 108 96 81 64 47 37 33 30 23 16 10 2 352 346 345 339 333 329 326 322 318 308 298 294 290 288 294 294 280 266 277 278 192 154 201 229 207 190 191 167 89 89 326 312 359 331 317 328 341 325 306 304 292 278 282 287 279 256 240 255 313 329 289 282 274 268
346 353 3 7 353 332 329 340 338 327 330 330 228 178 163 161 168 163 149 145 148 145 128 103 72 36 19 15 8 360 352 346 342 337 334 336 335 328 324 325 323 315 307 300 293 290 287 276 247 234 238 215 189 193 212 203 191 187 177 163 161 203 177 166 246 286 290 297 296 288 279 272 275 295 324 343 332 277 228 224 258 261 265 267 267
335 333 337 354 348 328 317 322 328 321 326 331 322 279 192 175 177 184 187 184 180 178 176 171 170 181 200 327 330 338 340 331 325 324 327 329 327 322 318 317 316 312 305 297 292 290 290 283 262 242 254 233 169 168 288 287 226 189 171 165 167 168 170 185 195 216 247 243 253 276 277 278 311 321 309 348 342 322 245 233 249 248 267 283 279
315 308 305 329 339 321 309 312 320 317 318 325 325 320 307 254 202 193 194 198 201 198 194 194 196 198 198 210 238 282 316 320 315 312 313 316 315 313 310 307 305 303 297 288 281 282 287 287 286 308 318 323 27 5 328 341 358 6 34 111 160 167 158 146 145 149 221 235 226 235 278 326 331 321 272 215 321 328 289 276 290 331 351 347 348
303 299 299 304 310 305 305 316 326 325 324 319 310 306 309 313 311 270 218 203 200 204 209 210 206 202 202 207 215 232 284 323 326 310 303 306 309 308 307 305 303 299 289 279 273 273 279 283 288 317 327 327 343 351 354 4 4 359 4 7 332 192 182 173 163 165 269 259 211 188 183 258 239 261 241 212 252 329 290 274 352 61 33 3 356
300 299 295 284 278 289 314 333 332 328 323 315 307 302 307 312 308 293 270 240 219 215 212 208 207 207 199 192 187 174 181 317 323 318 310 306 305 308 309 309 312 312 296 279 273 272 280 291 314 343 340 330 335 349 5 11 1 353 354 355 348 333 175 181 230 340 339 322 262 197 319 283 248 243 244 227 345 351 309 265 184 104 97 294 325
294 298 295 279 266 276 325 334 323 315 311 307 305 301 298 296 289 281 276 270 264 254 226 205 205 211 205 188 178 174 178 322 325 324 315 302 297 307 311 308 314 329 331 322 319 313 313 327 347 356 352 345 345 349 354 349 335 328 331 337 342 353 16 10 351 345 338 326 308 273 264 281 271 271 285 315 327 322 311 313 343 3 274 295 334
288 289 291 287 279 283 305 309 305 304 303 300 295 286 279 278 276 274 273 271 274 284 275 218 199 204 210 203 183 172 265 346 340 332 324 308 285 277 286 297 311 327 333 341 354 352 342 344 351 353 351 350 349 350 351 348 344 340 337 333 330 330 330 327 323 318 318 325 324 317 318 329 333 334 336 326 307 301 323 346 346 332 287 278 299
279 276 275 273 269 271 282 291 296 300 300 296 291 284 278 275 274 278 286 288 282 282 279 255 223 213 211 199 166 135 22 358 347 334 329 319 294 267 266 291 317 327 332 340 346 345 344 346 348 351 354 352 348 347 350 354 359 359 355 352 351 350 347 341 337 339 336 324 318 323 334 345 350 350 348 344 341 339 332 324 325 334 340 306 279
274 276 275 268 258 257 264 275 285 293 294 291 287 283 282 281 280 281 285 284 278 275 271 264 257 250 227 185 141 78 17 4 353 335 322 315 308 301 304 317 325 332 333 332 334 343 348 347 347 352 354 350 346 348 351 354 355 354 351 352 354 357 1 2 359 358 357 350 342 346 355 360 358 355 353 353 355 352 342 328 328 343 345 329 313
273 277 277 266 248 242 245 253 268 282 285 282 281 284 291 293 290 285 281 280 282 287 290 291 298 311 328 135 96 33 19 359 342 330 311 301 303 315 325 328 334 335 328 328 344 355 349 346 350 354 351 346 346 350 351 352 351 349 347 347 348 350 356 360 359 358 2 6 8 8 7 4 0 357 353 350 346 342 336 332 331 327 317 308 306
269 272 269 259 251 252 251 253 259 263 263 266 276 288 293 291 288 289 290 290 290 293 298 305 313 322 8 136 79 25 13 350 325 311 299 293 300 318 331 335 335 327 325 345 6 358 346 349 355 351 346 347 349 350 349 349 348 346 343 343 345 349 351 354 358 3 8 11 8 1 357 354 351 349 345 341 337 333 328 325 324 322 318 313 308
264 267 263 258 257 255 249 251 263 269 267 266 270 270 268 270 277 292 300 297 291 289 291 294 294 287 227 177 154 4 359 340 306 290 295 307 326 337 337 330 322 322 347 14 4 347 348 359 355 345 345 348 348 346 345 344 343 343 342 340 340 345 350 357 6 10 8 4 359 353 349 346 343 341 337 334 330 326 322 316 312 310 310 310 307
268 269 265 259 257 255 252 259 272 280 280 277 273 269 265 268 278 290 292 288 282 276 271 271 275 269 231 207 248 329 330 311 292 299 322 334 332 326 322 317 316 333 14 14 348 345 359 356 343 339 344 344 342 340 340 338 338 336 332 330 335 350 7 15 13 5 358 355 352 349 346 344 341 339 335 332 330 329 327 324 319 313 308 304 299
281 282 278 271 265 262 262 265 268 268 266 264 264 262 260 264 276 281 279 271 266 265 265 272 288 296 273 248 262 286 294 296 309 327 333 328 321 316 314 315 323 351 24 358 340 348 354 340 330 332 334 333 334 336 335 334 333 328 324 327 345 19 32 19 6 360 357 354 349 345 343 343 342 339 335 331 329 328 326 324 322 318 314 312 306
270 275 277 275 269 261 260 262 264 265 264 260 253 247 244 245 253 260 261 260 260 263 276 300 306 304 295 280 280 293 304 315 327 325 317 314 316 313 308 309 320 352 9 344 334 338 339 330 324 322 325 328 330 330 330 328 325 325 328 334 352 22 21 5 360 0 357 348 340 338 338 336 333 330 325 320 317 317 320 324 327 329 330 329 325
263 267 271 274 273 270 268 269 271 272 271 265 253 244 242 243 241 240 242 247 252 250 308 305 294 293 298 303 304 307 312 315 313 309 308 309 310 309 308 311 322 337 335 321 320 327 327 321 316 316 320 323 320 320 324 323 322 326 334 319 296 313 352 356 357 358 350 340 337 338 335 330 325 321 318 317 319 325 332 338 342 343 340 336 332
281 279 277 276 275 271 270 273 274 271 269 267 261 250 241 242 247 249 247 243 225 203 218 264 286 299 313 316 304 296 300 304 302 301 304 303 301 305 315 326 335 334 321 307 312 319 314 309 312 314 311 308 309 312 314 314 316 319 310 292 289 306 335 346 353 356 349 344 344 342 334 328 324 321 320 323 329 330 330 334 343 346 345 343 340
296 292 287 285 280 270 262 264 269 269 264 259 255 248 240 239 262 284 283 265 228 213 215 225 249 269 277 279 281 286 291 291 289 292 297 298 299 306 317 323 324 321 315 310 311 311 306 307 314 313 304 299 301 303 303 305 308 303 289 281 285 301 316 331 344 349 346 344 345 343 336 329 325 323 324 330 337 340 343 352 358 353 347 344 339
298 296 293 291 286 274 260 257 263 267 265 256 246 242 243 247 260 269 267 259 243 225 212 212 228 244 249 254 266 280 283 282 286 293 295 296 301 307 308 305 304 306 311 311 306 302 303 308 310 306 300 296 296 297 297 297 291 283 278 278 284 295 304 317 328 335 337 338 339 341 338 332 328 330 336 342 350 355 358 360 358 352 347 342 334
298 294 293 293 291 281 269 263 263 266 268 265 256 247 244 244 244 244 244 246 245 239 233 235 242 248 259 287 304 307 302 298 299 298 293 295 301 302 298 295 296 301 305 305 301 301 306 307 303 300 299 299 299 298 296 291 283 278 277 278 282 289 298 308 318 327 334 335 335 338 338 333 331 338 347 353 358 357 352 351 353 352 349 345 338
293 288 286 287 284 278 273 270 269 270 270 265 256 245 240 240 239 234 225 210 165 96 70 50 35 32 25 0 332 316 307 302 301 300 298 298 298 295 293 295 300 301 299 298 299 302 303 302 300 302 305 305 304 301 295 287 279 274 272 272 277 286 298 312 324 332 338 340 341 344 342 338 338 342 349 358 6 3 352 350 354 352 348 348 348